Omaha Millard, NE

3:44 PM CDT on October 20, 2017 (GMT -0500)
Millard Municipal

Weather History for KMLE - March, 2014

Change the Weather History Date:

Sunday, March 2, 2014

  Actual Average (KOFF) Record (KOFF)
Temperature  
Mean Temperature 0 °F -  
Max Temperature 3 °F 37 °F 62 °F (2008)
Min Temperature -4 °F 21 °F -2 °F (2014)
Degree Days  
Heating Degree Days 66    
Moisture  
Dew Point -13 °F    
Average Humidity 55    
Maximum Humidity 69    
Minimum Humidity 41    
Precipitation  
Precipitation 0.01 in - - ()
Sea Level Pressure  
Sea Level Pressure 30.56 in    
Wind  
Wind Speed 7 mph (North)    
Max Wind Speed 13 mph    
Max Gust Speed 20 mph    
Visibility 10 miles    
Events      
Averages and records for this station are not official NWS values.
T = Trace of Precipitation, MM = Missing Value Source: NWS Daily Summary

Daily Weather History Graph

Daily Weather History Graph

Search for Another Location

Airport or City:

Trip Planner

Search our weather history database for the weather conditions in past years. The results will help you decide how hot, cold, wet, or windy it might be!

Date:

Astronomy

Mar. 02, 2014 Rise Set
Actual Time 6:57 AM CST 6:16 PM CST
Civil Twilight 6:29 AM CST 6:44 PM CST
Nautical Twilight 5:57 AM CST 7:16 PM CST
Astronomical Twilight 5:25 AM CST 7:48 PM CST
Moon 7:27 AM CST (3/2) 8:15 PM CST (3/2)
Length of Visible Light 12h 14m
Length of Day
11h 19m
Waxing Crescent, 3% of the Moon is Illuminated
Mar 2
Waxing Crescent
Mar 8
First Quarter
Mar 16
Full
Mar 23
Last Quarter
Mar 30
New

Hourly Weather History & Observations

Time (CST) Temp. Windchill Dew Point Humidity Pressure Visibility Wind Dir Wind Speed Gust Speed Precip Events Conditions
12:15 AM 1.2 °F -10.1 °F -8.9 °F 63% 30.51 in 10.0 mi North 5.8 mph 16.1 mph N/A   Overcast
12:30 AM 1.4 °F -11.3 °F -8.5 °F 63% 30.51 in 10.0 mi North 6.9 mph 16.1 mph N/A   Overcast
12:55 AM 1.0 °F -10.3 °F -9.6 °F 61% 30.52 in 10.0 mi North 5.8 mph - N/A   Overcast
1:15 AM 0.5 °F -14.6 °F -11.2 °F 58% 30.52 in 10.0 mi North 9.2 mph 19.6 mph N/A   Overcast
1:35 AM 0.3 °F -13.8 °F -10.3 °F 61% 30.51 in 10.0 mi NNW 8.1 mph - N/A   Overcast
1:55 AM 0.1 °F -15.1 °F -10.5 °F 61% 30.52 in 10.0 mi North 9.2 mph 16.1 mph N/A   Mostly Cloudy
2:15 AM 0.1 °F -9.7 °F -9.4 °F 64% 30.52 in 10.0 mi North 4.6 mph 9.2 mph N/A   Overcast
2:35 AM 0.3 °F -15.8 °F -10.3 °F 61% 30.51 in 10.0 mi North 10.4 mph - N/A   Overcast
2:55 AM -0.0 °F -15.3 °F -11.2 °F 59% 30.53 in 10.0 mi North 9.2 mph 16.1 mph N/A   Overcast
3:15 AM -0.0 °F -14.2 °F -10.3 °F 62% 30.52 in 10.0 mi NNW 8.1 mph 16.1 mph N/A   Overcast
3:35 AM -0.2 °F -15.5 °F -9.9 °F 64% 30.52 in 10.0 mi North 9.2 mph - N/A   Overcast
3:55 AM -0.4 °F -16.7 °F -10.3 °F 63% 30.53 in 10.0 mi North 10.4 mph 17.3 mph N/A   Overcast
4:15 AM -0.4 °F -13.4 °F -9.9 °F 64% 30.54 in 10.0 mi NNW 6.9 mph - N/A   Overcast
4:35 AM -0.4 °F -12.0 °F -9.2 °F 66% 30.54 in 10.0 mi North 5.8 mph - N/A   Overcast
4:55 AM -0.2 °F -13.2 °F -9.4 °F 65% 30.55 in 7.0 mi NNW 6.9 mph - N/A   Overcast
5:10 AM -0.6 °F -16.9 °F -8.5 °F 69% 30.54 in 4.0 mi NNW 10.4 mph 16.1 mph N/A   Haze
5:35 AM -1.5 °F -17.1 °F -9.4 °F 69% 30.55 in 7.0 mi NNW 9.2 mph 19.6 mph N/A   Overcast
5:55 AM -2.2 °F -18.0 °F -10.5 °F 68% 30.55 in 10.0 mi North 9.2 mph 18.4 mph N/A   Mostly Cloudy
6:15 AM -2.2 °F -20.7 °F -11.2 °F 66% 30.55 in 10.0 mi NNW 12.7 mph 18.4 mph N/A   Mostly Cloudy
6:35 AM -2.6 °F -18.4 °F -11.6 °F 65% 30.56 in 10.0 mi NNW 9.2 mph - N/A   Mostly Cloudy
6:55 AM -3.1 °F -19.1 °F -11.7 °F 67% 30.57 in 10.0 mi North 9.2 mph 16.1 mph N/A   Overcast
7:15 AM -3.6 °F -14.1 °F -14.1 °F 61% 30.58 in 10.0 mi North 4.6 mph 17.3 mph N/A   Overcast
7:35 AM -3.8 °F -21.9 °F -14.6 °F 60% 30.58 in 10.0 mi North 11.5 mph 18.4 mph N/A   Overcast
7:55 AM -4.2 °F -21.4 °F -17.0 °F 54% 30.58 in 10.0 mi NNE 10.4 mph 18.4 mph N/A   Overcast
8:15 AM -4.0 °F -22.1 °F -16.6 °F 55% 30.60 in 10.0 mi North 11.5 mph 19.6 mph N/A   Overcast
8:35 AM -3.8 °F -19.9 °F -15.9 °F 56% 30.62 in 10.0 mi NNW 9.2 mph - N/A   Overcast
8:55 AM -4.2 °F -14.8 °F -16.4 °F 56% 30.62 in 10.0 mi NNE 4.6 mph - N/A   Overcast
9:15 AM -4.0 °F -19.0 °F -16.1 °F 56% 30.62 in 10.0 mi NNE 8.1 mph - N/A   Overcast
9:35 AM -3.5 °F -17.1 °F -16.1 °F 55% 30.62 in 10.0 mi North 6.9 mph - N/A   Overcast
9:55 AM -2.9 °F -16.5 °F -14.8 °F 57% 30.61 in 10.0 mi North 6.9 mph - 0.01 in   Overcast
10:15 AM -3.1 °F -17.9 °F -15.3 °F 56% 30.60 in 10.0 mi North 8.1 mph - N/A   Overcast
10:35 AM -3.3 °F -16.9 °F -15.5 °F 56% 30.60 in 10.0 mi North 6.9 mph - N/A   Scattered Clouds
10:55 AM -2.2 °F -14.2 °F -14.3 °F 57% 30.61 in 10.0 mi NNW 5.8 mph 16.1 mph N/A   Clear
11:15 AM -1.5 °F -16.0 °F -13.9 °F 56% 30.62 in 10.0 mi North 8.1 mph - N/A   Clear
11:35 AM -1.3 °F -13.1 °F -14.1 °F 55% 30.62 in 10.0 mi NNW 5.8 mph 10.4 mph N/A   Clear
11:55 AM -1.3 °F -17.8 °F -14.4 °F 54% 30.61 in 10.0 mi NNW 10.4 mph 16.1 mph N/A   Clear
12:15 PM -0.4 °F -18.4 °F -14.4 °F 52% 30.59 in 10.0 mi North 12.7 mph 17.3 mph N/A   Clear
12:35 PM -0.6 °F -14.9 °F -15.0 °F 51% 30.56 in 10.0 mi North 8.1 mph 16.1 mph N/A   Clear
12:55 PM 0.7 °F -15.4 °F -14.3 °F 50% 30.59 in 10.0 mi North 10.4 mph - N/A   Clear
1:15 PM 0.7 °F -12.1 °F -14.8 °F 48% 30.59 in 10.0 mi NW 6.9 mph 19.6 mph N/A   Clear
1:35 PM 1.9 °F -10.6 °F -13.7 °F 48% 30.59 in 10.0 mi NNW 6.9 mph - N/A   Clear
1:55 PM 1.9 °F -13.8 °F -15.5 °F 44% 30.57 in 10.0 mi NNW 10.4 mph - N/A   Clear
2:15 PM 1.9 °F -13.8 °F -17.1 °F 41% 30.57 in 10.0 mi North 10.4 mph 17.3 mph N/A   Clear
2:35 PM 2.3 °F -15.0 °F -15.0 °F 44% 30.57 in 10.0 mi North 12.7 mph 18.4 mph N/A   Clear
2:55 PM 2.7 °F -13.8 °F -14.8 °F 44% 30.57 in 10.0 mi North 11.5 mph 16.1 mph N/A   Clear
3:15 PM 2.3 °F -11.4 °F -15.9 °F 43% 30.55 in 10.0 mi North 8.1 mph - N/A   Clear
3:35 PM 3.0 °F -13.3 °F -14.6 °F 44% 30.55 in 10.0 mi North 11.5 mph - N/A   Clear
3:55 PM 2.3 °F -13.4 °F -16.4 °F 41% 30.54 in 10.0 mi North 10.4 mph 17.3 mph N/A   Clear
4:15 PM 2.7 °F -12.9 °F -14.6 °F 45% 30.54 in 10.0 mi North 10.4 mph 18.4 mph N/A   Clear
4:35 PM 2.3 °F -11.4 °F -14.8 °F 45% 30.54 in 10.0 mi North 8.1 mph - N/A   Clear
4:55 PM 1.9 °F -12.9 °F -15.2 °F 45% 30.53 in 10.0 mi North 9.2 mph - N/A   Clear
5:15 PM 1.8 °F -13.1 °F -14.4 °F 47% 30.53 in 10.0 mi North 9.2 mph - N/A   Clear
5:35 PM 1.4 °F -14.5 °F -14.6 °F 47% 30.53 in 10.0 mi NNW 10.4 mph - N/A   Clear
5:55 PM 1.4 °F -11.3 °F -13.7 °F 49% 30.53 in 10.0 mi North 6.9 mph - N/A   Clear
6:15 PM 1.2 °F -11.5 °F -13.2 °F 51% 30.54 in 10.0 mi North 6.9 mph - N/A   Clear
6:35 PM 1.0 °F -10.3 °F -13.2 °F 51% 30.54 in 10.0 mi North 5.8 mph - N/A   Clear
6:55 PM 1.0 °F -8.7 °F -13.0 °F 52% 30.54 in 10.0 mi North 4.6 mph - N/A   Clear
7:15 PM 1.0 °F -8.7 °F -12.8 °F 52% 30.57 in 10.0 mi NNW 4.6 mph - N/A   Clear
7:35 PM 0.7 °F -7.1 °F -14.8 °F 48% 30.56 in 10.0 mi North 3.5 mph - N/A   Clear
7:55 PM 0.5 °F -12.3 °F -14.3 °F 50% 30.56 in 10.0 mi NNW 6.9 mph - N/A   Clear
8:15 PM 0.5 °F -7.3 °F -13.5 °F 52% 30.56 in 10.0 mi North 3.5 mph - N/A   Clear
8:35 PM 0.3 °F - -13.5 °F 52% 30.56 in 10.0 mi Calm Calm - N/A   Clear
8:55 PM -0.0 °F -9.9 °F -13.5 °F 53% 30.55 in 10.0 mi North 4.6 mph - N/A   Clear
9:15 PM -0.4 °F - -13.0 °F 55% 30.57 in 10.0 mi Calm Calm - N/A   Clear
9:35 PM -0.6 °F - -13.0 °F 56% 30.58 in 10.0 mi Calm Calm - N/A   Clear
9:55 PM -0.4 °F - -13.0 °F 55% 30.59 in 10.0 mi Calm Calm - N/A   Clear
10:15 PM -0.6 °F - -13.0 °F 56% 30.60 in 10.0 mi Calm Calm - N/A   Clear
10:35 PM -0.6 °F -10.6 °F -13.4 °F 55% 30.60 in 10.0 mi NNW 4.6 mph - N/A   Clear
10:55 PM -0.9 °F - -13.5 °F 55% 30.60 in 10.0 mi Calm Calm - N/A   Clear
11:15 PM -1.5 °F -11.6 °F -13.4 °F 57% 30.60 in 10.0 mi NNW 4.6 mph - N/A   Clear
11:35 PM -1.5 °F -9.5 °F -13.5 °F 57% 30.60 in 10.0 mi NW 3.5 mph - N/A   Clear
11:55 PM -2.6 °F -10.8 °F -13.9 °F 59% 30.59 in 10.0 mi WNW 3.5 mph - N/A   Clear